Weather Service Report


112 
ASUS44 KBMX 230110
RWRAL 
             
ALABAMA REGIONAL WEATHER ROUNDUP
NATIONAL WEATHER SERVICE BIRMINGHAM AL
800 PM CDT FRI MAY 22 2015

NOTE: "FAIR" INDICATES FEW OR NO CLOUDS BELOW 12,000 FEET
WITH NO SIGNIFICANT WEATHER AND/OR OBSTRUCTIONS TO VISIBILITY.

THE REMARK "TC" DENOTES TEMPERATURE IN DEGREES CELSIUS.

ALZ001>011-014-016>018-020-230200-
NORTH ALABAMA
  
CITY           SKY/WX    TMP DP  RH WIND       PRES   REMARKS
MUSCLE SHOALS  CLEAR     68  46  45 NE5       30.24R                  
HUNTSVILLE     PTCLDY    70  48  45 N7        30.24R                  
DECATUR        PTCLDY    67  49  52 N6        30.25R                  
HALEYVILLE     FAIR      60  54  80 CALM      30.27R                  
GADSDEN        CLEAR    N/A N/A N/A CALM      30.22R                  
$$
 
ALZ012-013-022-023-030>036-040>044-230200-
WEST CENTRAL ALABAMA
  
CITY           SKY/WX    TMP DP  RH WIND       PRES   REMARKS
TUSCALOOSA     CLEAR     70  52  52 NE5       30.21R                  
$$
 
ALZ015-024>027-033>036-040>044-230200-
CENTRAL ALABAMA
  
CITY           SKY/WX    TMP DP  RH WIND       PRES   REMARKS
BIRMINGHAM     CLEAR     67  53  61 N3        30.24R                  
MONTGOMERY     CLEAR     74  55  51 VRB3      30.19R                  
SHELBY CO ARPT CLEAR     70  51  51 CALM      30.22R                  
MAXWELL AFB    CLEAR     72  59  62 N2        30.18R                  
GREENVILLE     FAIR      68  57  68 CALM      30.18R                  
$$
 
ALZ019-021-028-029-037-038-045>048-230200-
EAST CENTRAL ALABAMA
  
CITY           SKY/WX    TMP DP  RH WIND       PRES   REMARKS
ANNISTON       CLEAR     70  51  51 CALM      30.22R                  
ALEXANDER CITY CLEAR     67  55  66 CALM      30.21R                  
AUBURN         CLEAR     70  52  52 N5        30.22R                  
$$
 
ALZ051>064-230200-
SOUTHWEST ALABAMA
  
CITY           SKY/WX    TMP DP  RH WIND       PRES   REMARKS
MOBILE         PTCLDY    75  61  61 NE6       30.16R                  
BROOKLEY FIELD CLEAR     77  58  51 N6        30.16R                  
EVERGREEN      CLEAR     69  59  70 N3        30.18R                  
$$

ALZ049-050-065>069-230200-
SOUTHEAST ALABAMA
  
CITY           SKY/WX    TMP DP  RH WIND       PRES   REMARKS
DOTHAN         CLEAR     71  57  61 N5        30.21R                  
OZARK          CLEAR     74  55  51 N3        30.17R                  
TROY           CLEAR     69  56  62 CALM      30.20R                  
EUFAULA        FAIR      66  60  81 CALM      30.17R                  
$$

Return to Home page


Western Regional Climate Center, wrcc@dri.edu